[Date Prev][Date Next][Thread Prev][Thread Next] - [Date Index][Thread Index][Author Index]
2 Line ISS Keps 11-12
- Subject: [sarex] 2 Line ISS Keps 11-12
- From: "Dave Larsen Ph.D." <doc@xxxxxxxxxxx>
- Date: Tue, 12 Nov 2002 06:13:07 -0800
ISS
1 25544U 98067A 02316.17571935 .00036763 00000-0 47094-3 0 3637
2 25544 51.6397 29.9433 0013885 127.9100 334.6715 15.58703130227056
----
Via the sarex mailing list at AMSAT.ORG courtesy of AMSAT-NA.
To unsubscribe, send "unsubscribe sarex" to Majordomo@amsat.org
AMSAT Home